Regional Weather Roundup
Issued by NWS

Home | Current Version | Previous Version | Graphics & Text | Print | Product List | Glossary On
Versions: 1 2 3 4 5 6 7 8 9 10 11 12 13 14 15 16 17 18 19 20 21 22 23 24 25 26 27
000
ASUS45 KTFX 260910
RWRMT
MONTANA REGIONAL WEATHER ROUNDUP
NATIONAL WEATHER SERVICE GREAT FALLS MT
200 AM MST SUN FEB 26 2017

NOTE: "FAIR" INDICATES FEW OR NO CLOUDS BELOW 12000 FEET WITH NO
SIGNIFICANT WEATHER AND/OR OBSTRUCTIONS TO VISIBILITY.

MTZ001>007-043-261000-
WEST OF THE DIVIDE

CITY           SKY/WX    TMP DP  RH WIND       PRES   REMARKS
KALISPELL      CLOUDY    25  23  92 S7        29.78F WCI  17
MISSOULA       CLOUDY    24  23  96 W6        29.81F WCI  17
BUTTE          CLOUDY    21   7  54 SW8       29.73S WCI  11
MULLAN PASS    LGT SNOW  15  14  95 VRB5      29.62F VSB 1
ANACONDA         N/A     21   9  58 S6        29.75S WCI  14
DEER LODGE       N/A     21  12  68 CALM      29.77S
EUREKA           N/A     27  21  80 SE13      29.77F WCI  16
HAMILTON         N/A     28  14  54 SE12      29.80F WCI  18
LIBBY            N/A     25  25 100 CALM      29.76F
PLAINS           N/A     28  20  72 CALM      29.82
RONAN            N/A     25  22  88 CALM      29.85F
THOMPSON FALLS   N/A     27  23  84 CALM      29.86F
$$

MTZ008-052>055-261000-
SOUTHWEST MONTANA

CITY           SKY/WX    TMP DP  RH WIND       PRES   REMARKS
BOZEMAN        CLOUDY    19  12  74 CALM      29.78S
DILLON         CLOUDY    21   6  52 SW16      29.76S WCI   7
W YELLOWSTONE  CLOUDY    10   7  85 SW8       29.78S FOG     WCI  -1
ENNIS          CLOUDY    19   7  58 S15       29.82S WCI   5
$$

MTZ009-010-012-014-046-048-049-054-261000-
EAST SLOPES AND CENTRAL MONTANA

CITY           SKY/WX    TMP DP  RH WIND       PRES   REMARKS
CUT BANK       CLOUDY    25  15  66 NW14G23   29.68R WCI  13
GREAT FALLS    CLOUDY    27  16  63 W12       29.70R WCI  17
MALMSTROM AFB  FLURRIES  27  20  73 NW17G25   29.72R WCI  14
HELENA         CLOUDY    28  11  48 W6        29.76S WCI  22
AUGUSTA        CLOUDY    25   7  46 W17       29.66R WCI  12
BOWMANS CRNR   CLOUDY    25   7  46 W16       29.67R WCI  12
CHOTEAU          N/A     28  16  59 W14       29.70R WCI  17
CONRAD           N/A     28  17  63 SW22      29.73R WCI  14
POWER          LGT SNOW  23  20  87 W14       29.69R WCI  11
RAYNESFORD     FLURRIES  24  18  77 W23G32    29.69R WCI   9
ULM            CLOUDY    28  10  47 MISG      29.72R
$$

MTZ011-013-016-021-045-047-050-051-261000-
NORTH CENTRAL MONTANA

CITY           SKY/WX    TMP DP  RH WIND       PRES   REMARKS
HAVRE          LGT SNOW  28  25  88 W17       29.65S FOG     WCI  16
LEWISTOWN      CLOUDY    24  13  62 W16       29.66R WCI  11
N BAR RANCH    CLOUDY    23   9  54 W12G17    29.65R WCI  12
CHINOOK          N/A     28  27  93 SW14      29.65R VSB 3/4 WCI  17
DENTON         MOCLDY    27  16  63 W14G25    29.65R WCI  15
FORT BENTON      N/A     28  21  74 MISG      29.73R
GEYSER         FLURRIES  25  15  67 W17G31    29.67R WCI  11
GRASS RANGE    FLURRIES  24  17  74 W21G28    29.62R WCI  10
JUDITH GAP     CLOUDY    19   6  59 NW5       29.64S
ROY            FLURRIES  27  16  63 MISG      29.63R
STANFORD       MOCLDY    24  13  61 W23       29.64R WCI   9
WINIFRED       MOCLDY    25  19  76 W17G31    29.65R WCI  12
$$

MTZ017>020-022>027-061-062-261000-
NORTHEAST MONTANA

CITY           SKY/WX    TMP DP  RH WIND       PRES   REMARKS
GLASGOW        MOCLDY    17  13  84 SE9       29.64S WCI   6
JORDAN           N/A     25  18  74 W10       29.64R WCI  15
SIDNEY         FLURRIES  16  13  88 E5        29.71S
WOLF POINT     PTCLDY    13   9  84 NE7       29.68F WCI   3
PLENTYWOOD       N/A      9   7  92 CALM      29.68S
POPLAR           N/A     12   9  85 E6        29.69F WCI   3
SCOBEY           N/A     13   5  70 CALM      29.65F
$$

MTZ028>42-056>058-261000-
SOUTHCENTRAL AND SOUTHEAST MONTANA

CITY           SKY/WX    TMP DP  RH WIND       PRES   REMARKS
BAKER          CLEAR     20  14  77 SW12      29.65S WCI   8
BILLINGS       CLOUDY    22  12  65 SW9       29.71R WCI  12
LIVINGSTON     CLOUDY    23   6  48 SW26G38   29.72R WCI   6
MILES CITY     CLEAR     24  16  71 W8        29.68R WCI  15
BIG TIMBER     MOCLDY    23  10  58 W37G47    29.70R HAZE    WCI   4
EKALAKA          N/A     21   9  60 SW10      29.65S WCI  10
FORSYTH          N/A     27  12  54 SW6       29.69S WCI  20
HARLOWTON      CLOUDY    24  11  57 W22G32    29.68R WCI   9
LAUREL           N/A     19   6  57 SW2       29.71R
$$

REGIONAL REPORTS...DAKOTAS

CITY           SKY/WX    TMP DP  RH WIND       PRES   REMARKS
WILLISTON      CLOUDY     7   4  87 CALM      29.72S
MINOT          CLOUDY     2  -2  83 SW5       29.73R
DICKINSON      CLOUDY    14  11  87 E3        29.65S
BEACH            N/A    N/A N/A N/A MISG        N/A
CROSBY           N/A      3   1  92 S9        29.73F WCI -11
TIOGA          FOG       -4  -8  84 CALM      29.71S VSB 1/4
WATFORD CITY   CLOUDY    12  10  92 CALM      29.71S
BISMARCK       CLEAR     16  11  80 NW8       29.74R WCI   5
GRAND FORKS    LGT SNOW  14   6  70 N13       29.75R WCI   0
FARGO          FOG       20  18  92 MISG      29.69R VSB 1/2
BUFFALO SD       N/A     18  13  80 W13       29.59S WCI   5
RAPID CITY     CLEAR     16   8  71 W8        29.73R WCI   5
$$

REGIONAL REPORTS...WYOMING/IDAHO/WASHINGTON

CITY           SKY/WX    TMP DP  RH WIND       PRES   REMARKS
GILLETTE       CLOUDY    18   9  68 SW15      29.70R WCI   4
SHERIDAN       CLEAR     14   7  73 SE14      29.70R WCI  -1
BUFFALO WY     CLEAR     13  -1  54 W8        29.68R WCI   2
CODY           CLOUDY    22   2  42 W21G35    29.67F WCI   6
YELLOWSTONE LA   N/A      6   2  83 CALM      29.74S
IDAHO FALLS    CLEAR      9   6  88 SW7       29.90S WCI  -2
SALMON         CLOUDY    27   9  46 SW13      29.84F WCI  16
BOISE          MOCLDY    30  18  60 SE8       29.93F WCI  22
SPOKANE        FLURRIES  30  23  75 SW12      29.78F WCI  20
$$

REGIONAL REPORTS...ALBERTA

CITY           SKY/WX    TMP DP  RH WIND       PRES   REMARKS
EDMONTON       CLOUDY    19  12  73 W9        29.77R WCI   9
CALGARY        FLURRIES  18  12  79 N12G18    29.71R WCI   5
LETHBRIDGE     LGT SNOW  23 N/A N/A W9        29.72R WCI  13
MEDICINE HAT   FLURRIES  23  21  93 NW13      29.69R WCI  11
WATERTON GATE    N/A     23  14  68 SW13G20     N/A  WCI  11
CARDSTON         N/A     21  18  86 N8          N/A  WCI  12
MILK RIVER       N/A     23  21  93 N16G23      N/A  WCI  10
$$

REGIONAL REPORTS...SASKATCHEWAN

CITY           SKY/WX    TMP DP  RH WIND       PRES   REMARKS
SWIFT CURRENT  FLURRIES  16  14  93 SW8       29.60S WCI   5
REGINA         MOCLDY     5   3  92 S6        29.67S WCI  -6
SASKATOON      PTCLDY    10   7  85 W8        29.67R WCI  -1
CYPRESS HILLS    N/A     16  14  93 NW8         N/A  WCI   5
VAL MARIE        N/A     14  12  92 NE3         N/A
ROCKGLEN         N/A     10   9  92 S5          N/A
ASSINIBOIA       N/A     19  14  79 NW12        N/A  WCI   7
$$




USA.gov is the U.S. government's official web portal to all federal, state and local government web resources and services.